Precipitable_Water
0.68 0.67 0.65 0.65 0.64 0.62 0.61 0.59 0.58 0.58 0.57 0.56 0.56 0.55 0.55 0.55 0.54 0.54 0.54 0.54 0.53 0.53 0.52 0.51 0.50 0.49 0.47 0.43 0.42 0.39 0.39 0.28 0.21 0.18 0.18 0.19 0.26 0.39 0.38 0.40 0.38 0.42 0.42 0.30 0.28 0.31 0.53 0.61 0.64 0.76 0.71 0.69 0.66 0.69 0.70 0.71 0.71 0.66 0.50 0.41 0.31 0.32 0.29 0.34 0.34 0.37 0.47 0.47 0.58 0.60 0.60 0.57 0.63 0.81 0.88 0.95 0.94 0.95 0.99 0.98 1.04 1.04 1.03 1.13 1.22 1.32 1.36 1.40
0.66 0.65 0.64 0.62 0.62 0.61 0.60 0.59 0.58 0.58 0.57 0.56 0.55 0.54 0.54 0.54 0.54 0.54 0.54 0.54 0.54 0.53 0.52 0.51 0.50 0.49 0.46 0.43 0.42 0.41 0.35 0.26 0.18 0.20 0.17 0.23 0.25 0.31 0.38 0.41 0.41 0.40 0.38 0.25 0.24 0.33 0.41 0.49 0.56 0.65 0.59 0.53 0.64 0.56 0.59 0.53 0.67 0.55 0.47 0.37 0.27 0.29 0.28 0.35 0.36 0.38 0.52 0.53 0.56 0.63 0.63 0.59 0.63 0.70 0.82 0.74 0.82 0.85 0.86 0.94 0.98 0.95 1.06 1.19 1.27 1.30 1.36 1.39
0.65 0.63 0.62 0.60 0.60 0.60 0.59 0.59 0.58 0.58 0.57 0.56 0.55 0.54 0.55 0.55 0.54 0.54 0.54 0.54 0.54 0.53 0.52 0.52 0.51 0.48 0.45 0.45 0.44 0.42 0.34 0.23 0.23 0.15 0.16 0.22 0.21 0.24 0.35 0.41 0.39 0.38 0.28 0.23 0.32 0.38 0.52 0.55 0.57 0.56 0.55 0.47 0.47 0.43 0.48 0.44 0.48 0.54 0.44 0.25 0.26 0.29 0.30 0.34 0.36 0.36 0.45 0.60 0.60 0.61 0.65 0.64 0.74 0.78 0.88 0.72 0.77 0.81 0.71 0.78 0.88 0.86 0.92 1.06 1.15 1.25 1.34 1.38
0.64 0.62 0.60 0.59 0.59 0.59 0.58 0.58 0.58 0.57 0.57 0.56 0.55 0.55 0.55 0.55 0.55 0.55 0.55 0.55 0.55 0.54 0.54 0.53 0.52 0.48 0.46 0.44 0.45 0.43 0.32 0.21 0.12 0.15 0.29 0.39 0.34 0.27 0.30 0.39 0.39 0.38 0.32 0.28 0.35 0.42 0.54 0.58 0.56 0.59 0.48 0.39 0.38 0.40 0.36 0.38 0.39 0.38 0.32 0.24 0.24 0.28 0.27 0.31 0.38 0.42 0.55 0.62 0.64 0.72 0.80 0.71 0.82 0.83 0.79 0.76 0.64 0.68 0.76 0.78 0.73 0.80 0.90 1.01 1.10 1.19 1.28 1.32
0.64 0.62 0.59 0.59 0.59 0.59 0.58 0.57 0.57 0.56 0.57 0.56 0.55 0.55 0.56 0.56 0.56 0.56 0.56 0.56 0.56 0.55 0.54 0.52 0.48 0.48 0.47 0.47 0.45 0.42 0.27 0.09 0.22 0.43 0.70 0.50 0.43 0.38 0.33 0.36 0.41 0.37 0.32 0.32 0.36 0.53 0.57 0.53 0.54 0.51 0.49 0.34 0.32 0.31 0.31 0.35 0.43 0.28 0.24 0.25 0.26 0.27 0.27 0.35 0.47 0.57 0.60 0.59 0.58 0.67 0.66 0.76 0.90 0.83 0.72 0.65 0.50 0.53 0.67 0.77 0.82 0.89 0.96 1.01 1.04 1.16 1.23 1.22
0.65 0.62 0.60 0.60 0.60 0.59 0.57 0.56 0.56 0.55 0.55 0.56 0.56 0.56 0.56 0.56 0.57 0.57 0.57 0.56 0.54 0.51 0.48 0.46 0.47 0.44 0.47 0.47 0.44 0.36 0.19 0.07 0.47 0.49 0.67 0.61 0.46 0.39 0.36 0.39 0.41 0.37 0.34 0.31 0.34 0.46 0.50 0.49 0.48 0.38 0.36 0.33 0.28 0.24 0.28 0.30 0.32 0.22 0.24 0.24 0.26 0.28 0.30 0.46 0.57 0.62 0.62 0.58 0.59 0.57 0.73 0.80 0.76 0.70 0.74 0.71 0.62 0.61 0.77 0.83 0.87 0.94 1.00 1.03 1.11 1.15 1.12 1.13
0.66 0.63 0.61 0.61 0.60 0.58 0.56 0.55 0.54 0.53 0.53 0.54 0.55 0.56 0.56 0.57 0.58 0.57 0.56 0.53 0.50 0.48 0.46 0.46 0.44 0.45 0.44 0.48 0.42 0.27 0.13 0.15 0.37 0.49 0.55 0.60 0.54 0.45 0.43 0.42 0.42 0.37 0.32 0.29 0.36 0.40 0.44 0.42 0.45 0.42 0.36 0.31 0.26 0.23 0.23 0.24 0.26 0.24 0.22 0.23 0.24 0.29 0.31 0.48 0.57 0.62 0.64 0.65 0.59 0.64 0.73 0.60 0.62 0.54 0.82 0.69 0.75 0.74 0.82 0.87 0.94 1.03 1.12 1.13 1.05 1.14 1.17 1.19
0.67 0.64 0.62 0.61 0.60 0.58 0.56 0.53 0.52 0.51 0.52 0.54 0.55 0.56 0.57 0.57 0.57 0.56 0.53 0.50 0.49 0.46 0.45 0.43 0.42 0.39 0.44 0.38 0.23 0.15 0.12 0.12 0.25 0.49 0.48 0.53 0.52 0.50 0.47 0.42 0.37 0.33 0.26 0.24 0.32 0.35 0.44 0.42 0.39 0.35 0.32 0.24 0.24 0.23 0.22 0.23 0.21 0.20 0.22 0.24 0.24 0.28 0.34 0.50 0.62 0.62 0.61 0.67 0.73 0.72 0.67 0.68 0.65 0.77 0.84 0.77 0.81 0.77 0.79 0.86 0.95 1.06 1.10 1.12 1.12 1.13 1.12 1.17
0.68 0.65 0.63 0.62 0.60 0.57 0.55 0.52 0.51 0.51 0.52 0.54 0.55 0.56 0.56 0.56 0.55 0.53 0.50 0.49 0.46 0.45 0.43 0.40 0.37 0.39 0.46 0.36 0.19 0.13 0.11 0.17 0.22 0.43 0.48 0.45 0.46 0.47 0.43 0.32 0.34 0.24 0.23 0.26 0.37 0.48 0.49 0.38 0.39 0.36 0.25 0.25 0.25 0.21 0.21 0.20 0.17 0.20 0.23 0.24 0.28 0.32 0.37 0.52 0.60 0.62 0.64 0.70 0.78 0.65 0.67 0.75 0.78 0.92 0.85 0.93 0.86 0.89 0.93 0.94 0.99 1.06 1.08 1.07 1.10 1.17 1.18 1.19
0.69 0.66 0.63 0.63 0.60 0.58 0.55 0.52 0.50 0.51 0.52 0.55 0.56 0.56 0.55 0.54 0.53 0.50 0.49 0.47 0.45 0.44 0.40 0.40 0.40 0.40 0.36 0.25 0.24 0.12 0.28 0.36 0.46 0.49 0.44 0.42 0.39 0.40 0.36 0.32 0.30 0.27 0.24 0.27 0.43 0.48 0.44 0.42 0.38 0.39 0.37 0.27 0.25 0.23 0.26 0.22 0.20 0.24 0.27 0.26 0.31 0.35 0.41 0.50 0.56 0.60 0.70 0.73 0.72 0.66 0.71 0.76 0.86 0.77 0.77 1.06 1.04 0.99 0.99 0.99 1.04 1.05 1.04 1.05 1.10 1.15 1.23 1.21
0.70 0.66 0.65 0.63 0.61 0.59 0.55 0.51 0.50 0.51 0.53 0.56 0.56 0.54 0.53 0.53 0.51 0.48 0.47 0.45 0.45 0.42 0.40 0.39 0.43 0.41 0.28 0.35 0.20 0.25 0.54 0.49 0.53 0.48 0.45 0.40 0.34 0.30 0.27 0.34 0.33 0.30 0.33 0.38 0.43 0.48 0.46 0.41 0.37 0.35 0.31 0.27 0.28 0.27 0.26 0.26 0.29 0.28 0.30 0.28 0.31 0.40 0.44 0.53 0.61 0.66 0.70 0.69 0.77 0.72 0.71 0.84 0.88 0.85 0.80 0.99 1.10 1.03 0.90 0.95 0.98 1.02 1.00 1.03 1.09 1.10 1.18 1.26
0.69 0.67 0.65 0.63 0.61 0.59 0.55 0.51 0.49 0.51 0.55 0.56 0.54 0.53 0.52 0.51 0.47 0.47 0.45 0.44 0.45 0.43 0.42 0.44 0.49 0.55 0.46 0.36 0.29 0.29 0.53 0.48 0.52 0.46 0.43 0.37 0.29 0.30 0.31 0.37 0.36 0.35 0.36 0.36 0.39 0.44 0.42 0.38 0.34 0.32 0.28 0.32 0.27 0.29 0.28 0.32 0.32 0.31 0.34 0.32 0.36 0.43 0.45 0.50 0.61 0.64 0.63 0.69 0.79 0.81 0.74 0.78 0.82 0.79 1.00 1.05 1.08 1.03 0.92 0.88 0.94 1.01 1.05 1.08 1.10 1.12 1.14 1.19
0.70 0.68 0.66 0.63 0.61 0.59 0.55 0.52 0.51 0.55 0.57 0.56 0.54 0.53 0.51 0.49 0.44 0.44 0.45 0.44 0.48 0.48 0.45 0.49 0.55 0.69 0.56 0.35 0.33 0.41 0.51 0.49 0.52 0.48 0.42 0.38 0.31 0.33 0.33 0.36 0.36 0.41 0.48 0.43 0.41 0.39 0.38 0.38 0.34 0.32 0.35 0.33 0.31 0.28 0.32 0.34 0.35 0.33 0.40 0.38 0.38 0.42 0.44 0.53 0.64 0.66 0.63 0.70 0.73 0.68 0.44 0.68 0.82 0.95 1.01 1.00 0.95 1.01 0.98 0.98 1.01 1.04 1.12 1.16 1.14 1.12 1.14 1.18
0.71 0.68 0.66 0.63 0.60 0.59 0.56 0.52 0.54 0.58 0.57 0.56 0.55 0.53 0.51 0.46 0.43 0.42 0.43 0.46 0.52 0.52 0.51 0.51 0.57 0.59 0.48 0.28 0.35 0.42 0.48 0.51 0.50 0.45 0.35 0.38 0.32 0.29 0.34 0.38 0.44 0.47 0.50 0.48 0.46 0.43 0.43 0.42 0.36 0.34 0.36 0.33 0.31 0.38 0.34 0.34 0.35 0.31 0.33 0.36 0.34 0.37 0.39 0.52 0.57 0.66 0.62 0.72 0.72 0.64 0.43 0.67 0.83 0.91 0.92 0.95 0.89 0.83 0.80 0.92 0.95 1.01 1.08 1.17 1.16 1.13 1.12 1.16
0.71 0.69 0.66 0.63 0.60 0.59 0.57 0.54 0.57 0.57 0.56 0.56 0.55 0.52 0.50 0.45 0.43 0.43 0.48 0.52 0.57 0.61 0.63 0.63 0.65 0.61 0.45 0.33 0.39 0.39 0.51 0.51 0.41 0.37 0.36 0.34 0.35 0.34 0.35 0.37 0.37 0.40 0.42 0.45 0.41 0.42 0.40 0.38 0.36 0.33 0.32 0.38 0.38 0.34 0.31 0.32 0.32 0.33 0.31 0.29 0.33 0.36 0.40 0.48 0.53 0.61 0.57 0.67 0.70 0.60 0.53 0.65 0.78 0.86 0.92 0.92 0.82 0.77 0.69 0.75 0.89 0.98 1.04 1.04 1.10 1.09 1.11 1.17
0.72 0.70 0.66 0.63 0.60 0.60 0.57 0.56 0.57 0.57 0.57 0.57 0.55 0.53 0.49 0.45 0.44 0.47 0.51 0.56 0.63 0.65 0.72 0.67 0.58 0.50 0.36 0.26 0.30 0.38 0.38 0.32 0.31 0.42 0.44 0.43 0.41 0.34 0.38 0.37 0.35 0.35 0.38 0.39 0.41 0.38 0.38 0.38 0.34 0.35 0.35 0.37 0.34 0.31 0.31 0.29 0.28 0.31 0.30 0.28 0.29 0.37 0.41 0.42 0.50 0.59 0.63 0.65 0.65 0.56 0.53 0.65 0.74 0.88 0.94 0.90 0.81 0.80 0.74 0.81 0.88 0.89 0.92 0.96 1.00 1.04 1.06 1.04
0.73 0.71 0.66 0.63 0.61 0.61 0.59 0.57 0.57 0.57 0.59 0.59 0.62 0.59 0.54 0.48 0.47 0.50 0.54 0.60 0.66 0.68 0.65 0.56 0.59 0.55 0.22 0.31 0.46 0.28 0.28 0.33 0.40 0.42 0.45 0.47 0.45 0.43 0.42 0.39 0.36 0.34 0.39 0.40 0.39 0.39 0.39 0.38 0.38 0.37 0.38 0.34 0.33 0.31 0.26 0.25 0.25 0.26 0.30 0.27 0.30 0.33 0.41 0.41 0.53 0.62 0.61 0.53 0.52 0.60 0.53 0.64 0.71 0.82 0.88 0.85 0.86 0.87 0.80 0.82 0.90 0.92 0.97 1.00 1.03 1.03 1.00 1.00
0.73 0.71 0.67 0.63 0.61 0.62 0.60 0.58 0.57 0.56 0.58 0.60 0.65 0.67 0.54 0.52 0.53 0.52 0.53 0.57 0.70 0.66 0.62 0.64 0.60 0.50 0.28 0.41 0.26 0.28 0.34 0.34 0.35 0.38 0.41 0.45 0.46 0.45 0.43 0.39 0.36 0.34 0.36 0.36 0.40 0.37 0.39 0.35 0.37 0.31 0.32 0.32 0.31 0.29 0.24 0.20 0.23 0.22 0.23 0.23 0.24 0.31 0.40 0.41 0.43 0.57 0.58 0.55 0.50 0.59 0.56 0.61 0.68 0.75 0.80 0.82 0.92 0.89 0.82 0.83 0.88 0.92 0.95 1.01 1.03 1.01 1.00 1.00
0.72 0.71 0.67 0.63 0.62 0.63 0.61 0.60 0.58 0.57 0.57 0.59 0.63 0.77 0.70 0.67 0.61 0.51 0.43 0.49 0.43 0.36 0.41 0.37 0.37 0.19 0.15 0.25 0.34 0.35 0.36 0.37 0.39 0.37 0.34 0.39 0.42 0.43 0.42 0.43 0.40 0.36 0.32 0.31 0.31 0.34 0.35 0.33 0.33 0.29 0.25 0.25 0.26 0.28 0.27 0.24 0.25 0.24 0.23 0.22 0.26 0.29 0.36 0.37 0.47 0.52 0.48 0.48 0.50 0.51 0.48 0.55 0.63 0.72 0.82 0.88 0.91 0.87 0.79 0.82 0.87 0.89 0.94 0.97 0.97 0.97 0.97 0.96
0.70 0.69 0.67 0.63 0.62 0.63 0.63 0.62 0.61 0.61 0.60 0.53 0.50 0.56 0.53 0.38 0.39 0.32 0.44 0.46 0.34 0.30 0.35 0.37 0.42 0.36 0.36 0.30 0.31 0.36 0.41 0.41 0.34 0.34 0.36 0.40 0.40 0.38 0.37 0.39 0.36 0.34 0.30 0.27 0.29 0.32 0.33 0.26 0.25 0.24 0.24 0.25 0.26 0.27 0.26 0.25 0.27 0.25 0.25 0.26 0.28 0.32 0.36 0.41 0.45 0.50 0.55 0.50 0.49 0.48 0.49 0.51 0.60 0.69 0.78 0.84 0.88 0.87 0.81 0.74 0.79 0.85 0.87 0.90 0.88 0.89 0.93 0.96
0.68 0.67 0.67 0.64 0.62 0.62 0.64 0.64 0.65 0.66 0.65 0.58 0.48 0.36 0.29 0.34 0.25 0.23 0.29 0.32 0.35 0.35 0.34 0.33 0.35 0.34 0.34 0.34 0.29 0.31 0.28 0.28 0.32 0.30 0.32 0.39 0.38 0.34 0.30 0.32 0.30 0.27 0.28 0.29 0.28 0.32 0.32 0.24 0.23 0.26 0.27 0.27 0.27 0.28 0.27 0.26 0.25 0.26 0.25 0.28 0.33 0.32 0.32 0.37 0.43 0.51 0.53 0.43 0.49 0.51 0.47 0.52 0.62 0.72 0.79 0.83 0.80 0.78 0.76 0.73 0.77 0.82 0.87 0.86 0.84 0.83 0.85 0.95
0.66 0.65 0.66 0.64 0.62 0.61 0.63 0.65 0.67 0.71 0.71 0.62 0.46 0.35 0.37 0.42 0.49 0.59 0.44 0.22 0.27 0.30 0.33 0.33 0.37 0.34 0.38 0.38 0.31 0.30 0.28 0.24 0.27 0.29 0.33 0.35 0.32 0.29 0.29 0.30 0.27 0.24 0.28 0.28 0.28 0.27 0.25 0.24 0.24 0.27 0.29 0.30 0.31 0.30 0.28 0.27 0.26 0.26 0.25 0.28 0.30 0.33 0.38 0.43 0.45 0.49 0.50 0.46 0.46 0.51 0.46 0.54 0.65 0.74 0.81 0.79 0.80 0.86 0.87 0.79 0.79 0.83 0.88 0.85 0.81 0.83 0.84 0.89
0.64 0.64 0.63 0.64 0.63 0.61 0.62 0.64 0.67 0.71 0.66 0.56 0.42 0.40 0.36 0.47 0.58 0.63 0.53 0.33 0.25 0.31 0.31 0.30 0.28 0.27 0.29 0.31 0.30 0.31 0.25 0.23 0.21 0.26 0.30 0.33 0.30 0.30 0.28 0.26 0.25 0.25 0.27 0.28 0.25 0.23 0.22 0.24 0.28 0.28 0.30 0.27 0.26 0.26 0.26 0.27 0.26 0.26 0.29 0.30 0.29 0.35 0.36 0.30 0.34 0.39 0.49 0.46 0.44 0.53 0.50 0.56 0.69 0.79 0.80 0.87 0.88 0.93 0.98 0.95 0.93 0.95 0.91 0.89 0.84 0.85 0.86 0.86
0.63 0.63 0.63 0.62 0.63 0.61 0.61 0.63 0.69 0.68 0.58 0.55 0.49 0.43 0.48 0.54 0.58 0.56 0.41 0.25 0.22 0.26 0.29 0.30 0.29 0.26 0.26 0.25 0.28 0.27 0.25 0.25 0.26 0.25 0.33 0.32 0.27 0.31 0.29 0.27 0.26 0.25 0.23 0.25 0.25 0.23 0.23 0.26 0.29 0.29 0.26 0.26 0.23 0.25 0.26 0.25 0.23 0.25 0.25 0.26 0.24 0.25 0.27 0.24 0.27 0.33 0.43 0.51 0.53 0.55 0.52 0.55 0.67 0.67 0.75 0.88 0.98 0.97 1.02 0.99 0.98 0.99 0.99 1.00 0.95 0.92 0.92 0.89
0.61 0.62 0.62 0.61 0.61 0.63 0.59 0.65 0.56 0.58 0.62 0.55 0.48 0.54 0.55 0.58 0.61 0.56 0.35 0.28 0.29 0.26 0.36 0.30 0.30 0.27 0.28 0.31 0.30 0.25 0.26 0.27 0.26 0.28 0.32 0.32 0.29 0.28 0.26 0.29 0.27 0.24 0.25 0.26 0.25 0.23 0.25 0.31 0.34 0.32 0.31 0.30 0.25 0.23 0.24 0.24 0.23 0.23 0.25 0.25 0.26 0.26 0.26 0.25 0.24 0.29 0.31 0.38 0.50 0.45 0.35 0.41 0.62 0.69 0.71 0.81 0.87 0.88 0.99 0.94 0.93 0.96 0.97 0.99 0.90 0.88 0.95 0.97
0.59 0.60 0.60 0.59 0.60 0.61 0.62 0.54 0.51 0.62 0.55 0.44 0.50 0.58 0.57 0.61 0.59 0.56 0.37 0.24 0.20 0.27 0.26 0.21 0.28 0.23 0.31 0.25 0.28 0.28 0.26 0.23 0.27 0.29 0.31 0.32 0.34 0.31 0.27 0.25 0.28 0.23 0.24 0.25 0.24 0.26 0.28 0.33 0.33 0.31 0.31 0.30 0.27 0.23 0.24 0.25 0.23 0.21 0.23 0.26 0.25 0.25 0.26 0.25 0.24 0.23 0.27 0.23 0.40 0.44 0.24 0.32 0.59 0.63 0.68 0.75 0.79 0.84 0.96 0.93 0.92 0.96 0.97 0.96 0.91 0.90 0.93 0.95
0.57 0.58 0.59 0.58 0.57 0.60 0.51 0.47 0.63 0.62 0.46 0.45 0.57 0.60 0.60 0.63 0.64 0.56 0.30 0.23 0.15 0.25 0.20 0.25 0.26 0.24 0.29 0.27 0.28 0.28 0.18 0.21 0.29 0.30 0.30 0.32 0.29 0.33 0.25 0.25 0.26 0.27 0.28 0.28 0.24 0.25 0.28 0.27 0.28 0.29 0.29 0.28 0.27 0.24 0.26 0.26 0.23 0.21 0.26 0.27 0.26 0.26 0.26 0.25 0.24 0.21 0.18 0.23 0.34 0.39 0.36 0.31 0.40 0.57 0.73 0.79 0.77 0.81 0.86 0.91 0.91 0.94 0.96 0.95 0.94 0.94 0.94 0.95
0.55 0.56 0.57 0.58 0.56 0.56 0.54 0.62 0.60 0.52 0.51 0.56 0.61 0.60 0.67 0.68 0.65 0.55 0.33 0.18 0.18 0.26 0.22 0.22 0.28 0.32 0.29 0.28 0.30 0.24 0.25 0.29 0.22 0.27 0.32 0.33 0.31 0.28 0.26 0.24 0.24 0.25 0.27 0.26 0.19 0.27 0.30 0.27 0.26 0.25 0.25 0.24 0.25 0.26 0.29 0.29 0.25 0.24 0.27 0.27 0.25 0.23 0.24 0.24 0.22 0.20 0.18 0.14 0.21 0.28 0.40 0.31 0.36 0.54 0.73 0.77 0.67 0.73 0.77 0.84 0.87 0.92 0.96 0.96 0.95 0.97 0.97 0.98
0.54 0.55 0.56 0.58 0.57 0.56 0.67 0.60 0.56 0.55 0.63 0.65 0.60 0.63 0.71 0.73 0.56 0.33 0.24 0.17 0.33 0.26 0.37 0.24 0.35 0.29 0.28 0.30 0.27 0.25 0.25 0.27 0.22 0.28 0.32 0.32 0.32 0.29 0.25 0.26 0.27 0.27 0.28 0.26 0.22 0.28 0.30 0.27 0.29 0.28 0.26 0.23 0.26 0.27 0.28 0.30 0.27 0.29 0.30 0.29 0.28 0.27 0.24 0.23 0.18 0.19 0.22 0.20 0.14 0.23 0.33 0.27 0.35 0.51 0.60 0.73 0.67 0.65 0.73 0.81 0.86 0.91 0.95 0.97 0.98 0.98 0.98 0.99
0.53 0.53 0.56 0.58 0.55 0.56 0.53 0.62 0.58 0.67 0.70 0.67 0.64 0.66 0.71 0.66 0.40 0.16 0.17 0.12 0.33 0.25 0.30 0.31 0.26 0.25 0.30 0.26 0.26 0.26 0.23 0.25 0.26 0.29 0.29 0.28 0.29 0.31 0.30 0.32 0.29 0.27 0.25 0.26 0.26 0.28 0.33 0.37 0.34 0.28 0.25 0.27 0.28 0.28 0.26 0.28 0.29 0.32 0.31 0.28 0.27 0.26 0.24 0.23 0.23 0.22 0.23 0.22 0.24 0.22 0.27 0.24 0.23 0.40 0.50 0.50 0.52 0.64 0.76 0.82 0.88 0.93 0.96 0.99 1.01 0.99 0.97 0.98
0.52 0.52 0.53 0.59 0.48 0.49 0.48 0.45 0.57 0.67 0.70 0.70 0.69 0.66 0.61 0.50 0.27 0.14 0.10 0.23 0.34 0.33 0.32 0.30 0.27 0.31 0.27 0.24 0.21 0.25 0.23 0.24 0.25 0.26 0.25 0.28 0.27 0.27 0.27 0.24 0.29 0.24 0.24 0.24 0.25 0.30 0.33 0.35 0.33 0.31 0.31 0.32 0.31 0.25 0.26 0.30 0.31 0.29 0.26 0.24 0.21 0.20 0.25 0.22 0.23 0.25 0.21 0.22 0.31 0.35 0.30 0.30 0.20 0.34 0.55 0.63 0.71 0.76 0.75 0.74 0.80 0.84 0.90 0.95 0.96 0.96 0.98 1.00
0.50 0.50 0.52 0.53 0.52 0.58 0.44 0.44 0.54 0.62 0.66 0.73 0.65 0.54 0.46 0.25 0.25 0.14 0.15 0.39 0.30 0.31 0.31 0.30 0.30 0.29 0.26 0.25 0.22 0.21 0.20 0.23 0.25 0.27 0.24 0.25 0.23 0.22 0.22 0.20 0.23 0.18 0.17 0.23 0.23 0.29 0.32 0.33 0.35 0.33 0.40 0.36 0.34 0.27 0.26 0.26 0.27 0.25 0.24 0.21 0.16 0.17 0.19 0.17 0.18 0.17 0.19 0.21 0.32 0.38 0.42 0.35 0.32 0.42 0.53 0.63 0.71 0.80 0.83 0.82 0.82 0.85 0.90 0.94 0.95 0.97 1.01 1.02
0.48 0.48 0.51 0.49 0.54 0.52 0.53 0.53 0.57 0.64 0.70 0.71 0.54 0.51 0.30 0.22 0.11 0.16 0.30 0.38 0.32 0.35 0.32 0.32 0.29 0.27 0.26 0.21 0.20 0.21 0.24 0.22 0.27 0.27 0.27 0.27 0.23 0.23 0.24 0.23 0.26 0.23 0.17 0.21 0.24 0.25 0.29 0.34 0.35 0.34 0.38 0.39 0.35 0.25 0.25 0.22 0.23 0.22 0.20 0.20 0.17 0.15 0.15 0.15 0.20 0.22 0.21 0.28 0.35 0.34 0.46 0.35 0.46 0.52 0.63 0.65 0.76 0.84 0.87 0.90 0.91 0.90 0.92 0.93 0.95 1.00 1.01 1.00
0.46 0.46 0.45 0.47 0.51 0.52 0.53 0.57 0.67 0.72 0.66 0.64 0.46 0.35 0.32 0.17 0.15 0.42 0.36 0.43 0.41 0.43 0.37 0.31 0.30 0.28 0.25 0.21 0.21 0.23 0.21 0.25 0.25 0.26 0.27 0.24 0.23 0.21 0.22 0.24 0.25 0.24 0.22 0.26 0.25 0.26 0.23 0.25 0.31 0.35 0.33 0.38 0.33 0.30 0.28 0.31 0.27 0.25 0.26 0.20 0.17 0.17 0.16 0.14 0.16 0.16 0.19 0.21 0.26 0.38 0.33 0.34 0.34 0.42 0.69 0.72 0.80 0.86 0.89 0.92 0.95 0.97 0.96 0.98 1.02 1.02 0.99 0.97
0.44 0.41 0.44 0.47 0.51 0.53 0.54 0.66 0.72 0.74 0.68 0.55 0.36 0.27 0.19 0.18 0.30 0.36 0.40 0.39 0.39 0.37 0.33 0.33 0.29 0.26 0.25 0.24 0.24 0.24 0.24 0.23 0.27 0.27 0.26 0.25 0.22 0.21 0.21 0.22 0.25 0.26 0.28 0.24 0.28 0.28 0.26 0.28 0.34 0.40 0.38 0.38 0.33 0.33 0.36 0.34 0.30 0.31 0.30 0.29 0.22 0.20 0.25 0.17 0.21 0.20 0.21 0.21 0.21 0.31 0.36 0.51 0.48 0.70 0.76 0.78 0.80 0.83 0.88 0.91 0.92 0.93 0.97 1.01 0.99 0.96 0.94 0.94
0.39 0.34 0.42 0.40 0.43 0.47 0.59 0.71 0.77 0.77 0.61 0.44 0.31 0.21 0.21 0.30 0.35 0.44 0.40 0.44 0.40 0.34 0.33 0.30 0.28 0.24 0.24 0.24 0.24 0.24 0.29 0.25 0.27 0.27 0.27 0.26 0.26 0.23 0.25 0.25 0.26 0.28 0.27 0.23 0.31 0.28 0.30 0.28 0.37 0.40 0.41 0.40 0.41 0.43 0.40 0.38 0.25 0.32 0.30 0.24 0.26 0.31 0.25 0.21 0.22 0.27 0.27 0.23 0.20 0.42 0.42 0.54 0.68 0.70 0.74 0.75 0.76 0.81 0.87 0.88 0.90 0.90 0.95 0.97 0.94 0.92 0.92 0.90
0.32 0.38 0.32 0.35 0.38 0.43 0.56 0.70 0.80 0.70 0.56 0.41 0.27 0.19 0.30 0.36 0.45 0.44 0.47 0.41 0.42 0.38 0.32 0.24 0.25 0.22 0.21 0.20 0.22 0.24 0.27 0.27 0.27 0.26 0.25 0.28 0.25 0.26 0.25 0.26 0.29 0.29 0.30 0.29 0.29 0.34 0.30 0.30 0.38 0.37 0.35 0.42 0.45 0.45 0.44 0.42 0.40 0.34 0.25 0.27 0.31 0.32 0.29 0.22 0.17 0.21 0.19 0.16 0.21 0.34 0.33 0.41 0.42 0.39 0.72 0.74 0.73 0.78 0.81 0.85 0.89 0.91 0.94 0.90 0.89 0.89 0.88 0.87
0.33 0.35 0.37 0.44 0.46 0.57 0.66 0.75 0.76 0.63 0.49 0.36 0.24 0.27 0.38 0.33 0.44 0.49 0.48 0.46 0.42 0.41 0.34 0.28 0.27 0.26 0.21 0.21 0.23 0.25 0.29 0.26 0.26 0.27 0.25 0.28 0.24 0.31 0.28 0.28 0.33 0.31 0.32 0.35 0.30 0.32 0.33 0.27 0.34 0.39 0.39 0.41 0.45 0.44 0.40 0.42 0.41 0.34 0.30 0.34 0.23 0.19 0.17 0.26 0.19 0.14 0.13 0.13 0.16 0.24 0.37 0.38 0.41 0.43 0.60 0.63 0.66 0.71 0.78 0.83 0.84 0.84 0.86 0.85 0.85 0.86 0.87 0.87
0.37 0.34 0.31 0.57 0.64 0.74 0.76 0.78 0.66 0.55 0.43 0.30 0.25 0.24 0.34 0.35 0.41 0.48 0.52 0.48 0.44 0.40 0.33 0.33 0.28 0.28 0.28 0.24 0.27 0.29 0.29 0.25 0.27 0.27 0.26 0.29 0.24 0.30 0.30 0.32 0.32 0.35 0.35 0.36 0.32 0.32 0.35 0.28 0.32 0.41 0.38 0.42 0.42 0.40 0.31 0.36 0.41 0.42 0.37 0.29 0.30 0.26 0.23 0.20 0.24 0.26 0.21 0.17 0.17 0.23 0.33 0.30 0.46 0.52 0.60 0.62 0.67 0.71 0.73 0.75 0.76 0.81 0.82 0.80 0.79 0.80 0.81 0.81
0.31 0.24 0.31 0.63 0.75 0.78 0.76 0.66 0.55 0.47 0.37 0.26 0.27 0.28 0.37 0.34 0.37 0.52 0.54 0.48 0.43 0.40 0.36 0.34 0.33 0.29 0.29 0.28 0.30 0.29 0.31 0.28 0.28 0.29 0.28 0.30 0.26 0.33 0.32 0.34 0.33 0.36 0.37 0.37 0.34 0.36 0.32 0.34 0.27 0.36 0.42 0.40 0.33 0.37 0.34 0.35 0.33 0.34 0.33 0.29 0.27 0.26 0.33 0.29 0.29 0.23 0.19 0.17 0.17 0.19 0.21 0.27 0.43 0.60 0.62 0.63 0.67 0.70 0.70 0.70 0.73 0.75 0.75 0.74 0.76 0.77 0.78 0.79
0.45 0.29 0.42 0.70 0.76 0.78 0.69 0.57 0.41 0.35 0.33 0.36 0.35 0.31 0.33 0.33 0.38 0.49 0.54 0.53 0.48 0.48 0.42 0.38 0.37 0.31 0.30 0.28 0.30 0.35 0.33 0.32 0.30 0.29 0.30 0.30 0.29 0.26 0.34 0.35 0.37 0.35 0.38 0.37 0.35 0.36 0.33 0.31 0.27 0.34 0.34 0.33 0.35 0.39 0.38 0.36 0.38 0.35 0.35 0.32 0.31 0.30 0.28 0.22 0.21 0.30 0.28 0.23 0.20 0.19 0.17 0.28 0.48 0.65 0.64 0.63 0.67 0.66 0.65 0.62 0.62 0.66 0.69 0.71 0.74 0.76 0.78 0.79
0.31 0.22 0.42 0.68 0.72 0.61 0.52 0.36 0.36 0.41 0.36 0.30 0.29 0.33 0.31 0.41 0.38 0.47 0.50 0.52 0.47 0.44 0.47 0.42 0.39 0.37 0.32 0.30 0.32 0.34 0.34 0.33 0.34 0.33 0.34 0.29 0.33 0.33 0.37 0.42 0.41 0.41 0.38 0.36 0.36 0.42 0.39 0.37 0.33 0.30 0.32 0.33 0.38 0.41 0.42 0.41 0.41 0.39 0.37 0.34 0.36 0.34 0.32 0.27 0.20 0.24 0.27 0.26 0.25 0.23 0.20 0.24 0.51 0.65 0.66 0.65 0.65 0.63 0.62 0.60 0.59 0.63 0.68 0.70 0.74 0.78 0.81 0.82
0.26 0.26 0.47 0.61 0.54 0.48 0.41 0.33 0.35 0.33 0.31 0.35 0.42 0.39 0.40 0.40 0.37 0.45 0.48 0.49 0.44 0.42 0.38 0.35 0.36 0.35 0.35 0.32 0.32 0.34 0.36 0.35 0.36 0.34 0.36 0.36 0.36 0.38 0.42 0.43 0.45 0.44 0.42 0.41 0.42 0.43 0.49 0.36 0.32 0.32 0.37 0.37 0.41 0.44 0.44 0.44 0.43 0.39 0.40 0.39 0.36 0.32 0.33 0.30 0.28 0.27 0.23 0.24 0.21 0.22 0.19 0.24 0.47 0.63 0.64 0.65 0.67 0.67 0.66 0.64 0.64 0.67 0.71 0.73 0.76 0.79 0.80 0.81
0.25 0.26 0.32 0.49 0.49 0.44 0.35 0.28 0.26 0.25 0.27 0.32 0.33 0.33 0.37 0.37 0.38 0.41 0.44 0.47 0.44 0.40 0.35 0.34 0.33 0.35 0.33 0.34 0.34 0.33 0.37 0.32 0.39 0.38 0.37 0.41 0.39 0.46 0.46 0.46 0.49 0.46 0.45 0.41 0.37 0.42 0.35 0.39 0.34 0.30 0.27 0.28 0.30 0.36 0.38 0.42 0.42 0.37 0.34 0.37 0.35 0.35 0.32 0.33 0.32 0.32 0.23 0.24 0.23 0.20 0.16 0.23 0.45 0.58 0.62 0.65 0.65 0.63 0.65 0.69 0.71 0.71 0.74 0.74 0.76 0.79 0.80 0.81
0.31 0.35 0.33 0.40 0.55 0.40 0.30 0.31 0.27 0.25 0.26 0.29 0.28 0.27 0.31 0.33 0.41 0.44 0.46 0.44 0.45 0.42 0.37 0.34 0.35 0.37 0.34 0.34 0.33 0.36 0.38 0.36 0.36 0.41 0.42 0.42 0.43 0.50 0.51 0.49 0.51 0.49 0.55 0.52 0.47 0.46 0.38 0.39 0.34 0.27 0.24 0.21 0.21 0.21 0.24 0.29 0.34 0.38 0.39 0.39 0.41 0.39 0.35 0.31 0.26 0.27 0.21 0.25 0.26 0.23 0.22 0.28 0.43 0.52 0.55 0.59 0.62 0.64 0.69 0.71 0.74 0.74 0.71 0.72 0.75 0.77 0.79 0.80
0.32 0.21 0.36 0.42 0.48 0.37 0.31 0.34 0.32 0.29 0.28 0.29 0.28 0.30 0.32 0.33 0.41 0.46 0.48 0.45 0.47 0.45 0.40 0.38 0.38 0.37 0.35 0.34 0.33 0.34 0.36 0.40 0.37 0.39 0.40 0.40 0.44 0.47 0.52 0.53 0.52 0.51 0.53 0.51 0.49 0.47 0.41 0.42 0.38 0.33 0.29 0.27 0.28 0.31 0.38 0.38 0.36 0.31 0.36 0.38 0.39 0.39 0.38 0.33 0.31 0.26 0.22 0.27 0.26 0.27 0.28 0.30 0.36 0.44 0.48 0.53 0.56 0.58 0.62 0.66 0.67 0.68 0.71 0.74 0.76 0.77 0.79 0.81
0.49 0.36 0.40 0.34 0.45 0.43 0.42 0.41 0.37 0.36 0.31 0.38 0.30 0.33 0.32 0.36 0.39 0.41 0.49 0.42 0.48 0.45 0.42 0.39 0.38 0.33 0.32 0.31 0.33 0.34 0.36 0.36 0.40 0.38 0.39 0.38 0.42 0.45 0.52 0.52 0.53 0.54 0.54 0.50 0.50 0.45 0.41 0.36 0.39 0.38 0.36 0.35 0.36 0.35 0.38 0.37 0.32 0.35 0.35 0.37 0.40 0.40 0.40 0.36 0.31 0.27 0.33 0.28 0.23 0.31 0.35 0.31 0.32 0.39 0.43 0.49 0.55 0.59 0.63 0.66 0.68 0.70 0.72 0.73 0.76 0.79 0.81 0.83
0.36 0.49 0.54 0.62 0.45 0.37 0.37 0.39 0.45 0.39 0.37 0.37 0.34 0.39 0.40 0.40 0.41 0.39 0.45 0.48 0.47 0.47 0.39 0.40 0.38 0.38 0.36 0.33 0.33 0.31 0.34 0.35 0.37 0.35 0.40 0.41 0.41 0.46 0.45 0.51 0.50 0.56 0.53 0.49 0.50 0.43 0.38 0.32 0.39 0.36 0.36 0.38 0.40 0.38 0.37 0.34 0.32 0.32 0.33 0.34 0.34 0.34 0.33 0.33 0.34 0.33 0.32 0.26 0.24 0.30 0.33 0.30 0.32 0.37 0.42 0.47 0.52 0.55 0.61 0.67 0.71 0.74 0.76 0.77 0.78 0.78 0.79 0.80
0.54 0.56 0.55 0.64 0.47 0.52 0.51 0.53 0.52 0.45 0.39 0.38 0.38 0.41 0.41 0.43 0.43 0.44 0.44 0.44 0.45 0.46 0.45 0.38 0.38 0.38 0.37 0.38 0.35 0.31 0.33 0.29 0.32 0.37 0.37 0.41 0.41 0.43 0.42 0.47 0.52 0.55 0.50 0.46 0.46 0.47 0.40 0.35 0.36 0.35 0.33 0.33 0.35 0.35 0.36 0.33 0.33 0.31 0.30 0.32 0.35 0.36 0.35 0.34 0.32 0.33 0.33 0.30 0.31 0.32 0.33 0.33 0.35 0.39 0.46 0.53 0.61 0.66 0.71 0.76 0.78 0.76 0.76 0.76 0.77 0.77 0.77 0.78
0.46 0.42 0.42 0.56 0.56 0.55 0.54 0.53 0.51 0.46 0.41 0.42 0.38 0.40 0.42 0.44 0.43 0.45 0.46 0.44 0.40 0.43 0.46 0.39 0.40 0.39 0.37 0.37 0.37 0.33 0.35 0.33 0.32 0.31 0.40 0.38 0.42 0.44 0.44 0.47 0.48 0.53 0.51 0.46 0.47 0.48 0.39 0.34 0.36 0.34 0.29 0.28 0.31 0.32 0.32 0.31 0.31 0.30 0.33 0.37 0.37 0.38 0.39 0.40 0.37 0.35 0.35 0.34 0.35 0.35 0.34 0.33 0.43 0.52 0.52 0.59 0.66 0.72 0.74 0.72 0.73 0.76 0.77 0.77 0.76 0.76 0.78 0.79
0.61 0.63 0.61 0.49 0.42 0.48 0.53 0.49 0.47 0.46 0.43 0.42 0.41 0.44 0.44 0.43 0.44 0.44 0.44 0.48 0.44 0.42 0.42 0.40 0.42 0.43 0.44 0.41 0.39 0.38 0.42 0.40 0.39 0.38 0.42 0.41 0.37 0.45 0.41 0.46 0.49 0.44 0.47 0.45 0.44 0.45 0.41 0.37 0.39 0.35 0.28 0.27 0.32 0.32 0.33 0.33 0.32 0.30 0.30 0.35 0.36 0.35 0.34 0.37 0.35 0.36 0.32 0.29 0.34 0.37 0.35 0.34 0.45 0.55 0.60 0.63 0.66 0.67 0.67 0.70 0.72 0.75 0.77 0.76 0.76 0.77 0.77 0.77
0.60 0.65 0.67 0.58 0.39 0.48 0.43 0.48 0.48 0.45 0.40 0.47 0.48 0.46 0.46 0.46 0.50 0.50 0.42 0.47 0.49 0.49 0.47 0.45 0.45 0.44 0.46 0.43 0.41 0.41 0.46 0.47 0.46 0.45 0.43 0.44 0.49 0.52 0.52 0.51 0.51 0.47 0.45 0.44 0.46 0.41 0.41 0.38 0.35 0.36 0.29 0.28 0.34 0.36 0.34 0.32 0.29 0.23 0.24 0.32 0.36 0.35 0.35 0.39 0.40 0.40 0.39 0.40 0.36 0.33 0.35 0.45 0.52 0.56 0.52 0.57 0.62 0.66 0.69 0.71 0.72 0.74 0.76 0.77 0.76 0.75 0.75 0.74
Wind_Speed
10 11 11 12 12 12 12 12 11 11 11 11 11 11 11 11 11 11 11 11 10 10 10 10 10 10 10 9 8 8 8 7 6 5 5 4 3 3 2 2 1 0 0 0 0 0 1 3 4 3 2 2 4 5 4 4 3 3 4 4 3 3 3 2 3 3 3 4 4 4 7 7 5 5 5 6 7 7 7 7 6 7 6 4 5 8 8 8
10 11 12 12 12 12 12 12 11 11 11 11 10 10 10 10 10 10 10 10 10 10 10 10 9 9 9 8 7 7 7 6 6 5 5 4 3 2 2 1 0 1 1 0 1 2 2 3 4 3 3 2 4 4 2 3 3 3 3 4 3 2 1 2 2 2 3 4 4 3 5 6 4 3 3 3 3 5 6 6 7 8 7 6 7 7 7 8
11 11 12 12 12 12 12 12 11 11 11 10 10 10 10 10 10 10 10 9 9 9 9 9 9 9 8 7 7 6 6 5 5 4 4 3 3 3 2 1 1 2 1 1 2 3 3 3 3 3 2 2 3 3 1 2 2 2 2 3 1 1 2 2 2 3 5 6 4 3 4 5 4 2 3 2 2 3 4 4 6 7 7 7 6 7 7 7
11 11 12 12 11 11 12 11 11 11 10 10 10 9 9 9 9 9 9 9 9 8 8 8 8 7 7 6 6 5 4 4 4 3 3 3 3 3 2 2 2 2 2 2 2 3 4 3 2 2 2 2 1 1 1 2 2 2 2 3 1 1 3 3 4 6 8 7 5 4 6 6 4 4 3 3 2 3 2 3 5 6 7 7 6 7 7 6
11 11 11 11 11 11 11 11 11 10 10 10 9 9 9 8 8 8 8 8 8 8 7 7 7 6 6 5 5 4 3 3 3 3 3 3 2 1 2 2 2 2 2 2 2 4 5 4 3 2 2 2 1 1 1 2 3 3 2 3 2 3 4 4 5 9 8 8 7 5 5 5 5 5 5 4 3 2 2 4 5 6 7 7 7 7 6 6
11 11 11 11 11 11 11 11 11 10 10 9 9 9 8 8 8 8 8 8 7 7 6 6 6 6 6 5 4 3 1 2 3 3 3 3 3 3 4 3 3 3 3 3 4 6 5 4 3 3 2 2 1 1 1 1 3 3 1 2 3 4 4 4 6 8 8 8 7 5 5 5 5 6 7 7 4 2 3 4 5 5 6 7 7 6 5 5
11 11 11 11 11 11 11 11 10 10 9 9 9 8 8 8 8 8 7 7 6 6 6 6 6 6 6 5 4 3 2 3 2 3 3 3 3 4 4 3 3 3 4 5 6 6 5 4 3 2 2 1 1 1 2 1 3 4 2 2 3 4 5 6 6 8 9 9 7 7 5 5 6 5 7 8 7 4 5 4 4 4 6 6 6 5 5 5
11 11 11 11 11 11 11 11 10 10 9 8 8 8 8 7 7 7 6 5 5 5 6 6 5 5 5 4 3 2 2 4 2 1 3 3 3 3 3 3 3 4 4 5 6 5 4 2 2 2 2 2 1 2 1 2 3 4 3 2 2 4 6 6 7 9 10 9 8 9 7 6 7 7 7 9 8 5 5 4 4 4 4 4 4 4 4 4
11 11 11 11 11 11 11 11 10 9 9 8 8 7 7 7 6 6 5 5 5 4 4 4 3 3 2 3 2 1 3 4 2 0 1 2 2 2 3 2 3 4 4 5 5 4 3 2 2 1 2 3 3 2 3 3 2 3 3 3 4 4 6 6 6 8 8 8 10 11 9 7 8 7 8 9 8 5 5 4 3 3 3 3 2 3 3 3
11 11 11 11 11 11 11 10 10 9 8 8 7 7 6 6 5 4 4 4 3 3 2 1 1 2 2 2 2 1 2 2 1 1 1 2 2 2 3 3 4 5 4 4 4 4 3 2 2 2 3 3 3 3 4 3 2 3 3 3 5 5 5 5 5 6 6 6 10 10 8 6 6 7 7 8 8 6 5 4 3 2 1 2 2 3 3 2
11 11 11 11 11 11 10 10 9 8 7 7 7 6 6 5 4 3 3 2 1 1 1 1 2 3 3 2 2 1 1 1 1 1 2 3 3 2 3 3 4 4 4 3 3 3 4 3 2 2 4 3 3 2 2 2 1 2 3 4 5 3 3 4 5 6 5 5 9 10 8 7 7 8 7 8 8 6 5 5 3 2 1 1 2 3 3 3
11 11 11 11 10 10 10 9 9 8 7 7 6 6 5 5 4 3 2 1 0 2 2 3 3 3 2 1 1 1 1 2 1 1 3 3 3 2 3 3 3 4 4 3 2 3 4 4 3 3 4 4 3 2 1 1 2 3 5 6 4 2 3 3 4 6 6 6 8 9 8 7 7 7 7 8 9 7 7 6 5 4 3 2 1 2 2 2
11 11 11 10 10 10 9 9 8 7 6 6 6 6 5 5 4 3 2 1 2 2 3 3 3 3 2 1 0 1 1 2 3 2 3 3 2 2 2 3 3 3 4 3 2 3 4 3 2 3 3 4 3 2 2 1 2 3 5 5 3 3 2 3 4 5 6 5 4 5 6 6 6 7 7 8 9 9 8 7 6 5 5 3 1 1 1 1
11 11 10 10 10 9 9 8 7 7 6 6 6 6 6 5 5 4 3 3 2 2 3 3 2 2 2 1 1 2 2 3 4 3 4 4 3 3 3 3 2 2 3 3 2 3 3 3 2 3 3 4 3 2 1 2 2 4 3 2 2 1 1 1 3 5 3 2 2 5 5 4 5 5 6 6 8 8 8 7 6 6 6 5 4 3 2 2
11 10 10 10 9 9 8 8 7 7 6 7 7 6 6 6 5 4 4 3 3 2 3 3 2 2 2 2 2 2 4 5 4 4 4 5 5 4 4 3 3 3 3 3 3 3 3 2 3 4 3 3 3 2 2 2 2 2 2 2 1 2 1 0 2 5 4 1 2 5 4 3 4 4 4 5 7 8 8 8 7 7 6 6 5 5 4 3
11 10 10 9 9 8 8 7 6 6 6 7 7 6 6 6 6 5 5 4 3 3 3 2 2 2 2 2 3 3 5 5 4 4 4 5 6 5 4 4 3 3 4 4 4 3 3 3 4 4 3 2 3 3 2 2 1 1 2 4 3 3 2 1 2 4 5 1 3 3 3 2 4 3 3 5 7 8 8 8 8 7 7 7 6 6 6 4
10 10 10 9 9 8 8 7 6 6 6 6 6 6 6 6 6 6 5 4 4 3 3 2 1 1 1 1 2 3 4 4 5 5 5 5 6 5 4 4 4 5 5 5 4 3 3 3 4 3 3 2 2 2 1 1 0 1 2 4 5 6 4 4 3 1 2 0 3 4 3 3 3 2 3 5 7 8 8 8 7 7 7 7 7 7 7 6
10 10 10 9 9 8 7 7 6 6 5 6 6 6 6 6 7 6 6 5 5 4 4 3 2 1 1 1 2 3 4 4 5 6 5 5 5 5 4 3 4 5 4 4 3 3 2 2 3 2 1 1 1 2 1 2 1 0 1 2 5 8 7 6 5 2 2 1 1 3 4 3 3 2 3 4 6 7 8 7 7 7 7 7 7 7 7 7
10 10 10 9 9 8 8 7 6 6 5 5 5 6 6 6 7 7 7 6 6 5 4 5 4 2 1 2 3 3 4 5 5 5 5 5 5 4 4 3 3 4 4 3 2 2 3 1 1 1 2 2 2 3 4 3 2 1 1 1 3 9 8 6 5 3 3 1 1 1 1 1 1 1 3 4 5 7 7 7 7 7 7 7 8 8 7 7
10 10 10 9 9 9 8 7 7 6 5 4 5 6 7 6 7 7 7 8 8 7 6 6 6 4 3 2 3 4 4 5 5 4 5 5 5 4 4 3 3 3 3 3 1 1 2 1 1 2 4 4 3 3 4 3 2 1 1 2 5 8 7 5 4 3 2 0 2 1 1 0 1 1 2 3 5 6 5 6 6 6 6 7 7 8 7 7
10 10 10 9 9 9 9 8 7 7 6 5 5 6 8 7 7 7 7 9 10 10 9 8 7 7 5 3 5 6 5 4 4 4 5 5 4 4 3 2 2 1 1 2 1 1 1 2 4 5 5 5 5 4 4 2 1 1 1 3 5 6 5 3 3 4 3 2 3 2 0 0 1 1 1 2 4 4 4 4 4 6 6 6 6 7 7 7
11 10 10 10 9 9 9 9 8 7 6 6 5 6 8 8 8 8 7 8 9 10 10 9 7 7 6 6 7 6 5 4 4 3 4 4 4 4 2 1 1 1 0 0 1 2 2 4 6 8 7 5 5 5 3 1 2 1 1 5 6 5 3 1 2 4 4 3 3 2 1 1 2 1 0 1 2 3 3 3 3 5 6 5 6 6 6 7
11 11 10 10 10 9 9 9 8 7 6 7 7 7 8 8 8 8 7 8 8 9 9 9 7 7 7 7 7 6 5 4 4 4 4 4 4 4 2 1 1 2 1 1 2 4 5 4 5 7 6 4 5 4 2 2 1 2 3 6 6 4 4 2 3 3 4 4 2 2 1 1 1 1 2 2 2 2 3 3 4 4 5 4 5 5 6 7
12 11 10 10 10 10 10 9 8 7 7 8 8 7 7 8 8 7 8 8 8 8 9 10 8 7 7 7 7 8 6 5 4 4 4 5 4 3 3 2 2 3 4 4 4 5 6 5 3 3 2 2 3 3 3 4 2 2 4 5 5 4 4 3 3 2 3 4 2 2 1 2 2 2 2 2 1 1 2 3 4 4 4 4 5 6 6 6
12 12 11 10 10 10 10 9 8 7 8 9 8 7 7 8 8 7 8 7 7 8 9 9 8 8 8 7 7 8 7 6 6 5 4 5 5 3 3 3 3 4 6 6 5 5 6 5 3 2 2 2 3 3 4 6 5 2 3 4 4 4 4 4 3 2 2 3 6 4 1 3 4 3 3 3 2 1 1 2 3 4 4 4 4 5 6 6
13 12 12 11 10 11 10 9 8 7 8 9 8 7 7 8 8 8 8 6 7 9 8 9 8 8 9 8 8 7 5 6 7 7 5 5 6 4 3 4 3 4 5 5 3 3 4 5 3 2 2 2 3 4 5 6 5 4 6 5 4 4 4 4 3 4 4 6 9 7 3 4 5 4 4 4 3 3 3 3 3 3 3 3 3 4 5 6
13 13 12 11 10 10 9 9 9 8 9 9 8 7 8 8 8 8 8 6 7 10 9 9 9 8 9 9 8 6 5 6 6 7 7 5 5 5 5 4 3 4 5 4 2 3 4 4 3 2 2 3 4 4 6 6 5 7 8 6 4 4 4 5 5 5 7 7 8 8 5 4 6 6 6 4 3 4 4 3 3 3 2 2 3 4 5 6
13 13 13 12 11 10 10 10 9 9 10 9 9 8 8 9 8 8 8 6 7 9 9 9 9 8 8 8 9 7 6 6 5 6 7 5 5 4 5 5 3 5 5 2 3 5 4 4 4 3 3 5 5 6 7 6 5 9 10 6 6 6 6 7 7 6 7 6 7 9 6 4 6 7 5 5 5 5 6 5 4 4 3 3 3 4 5 6
14 14 13 13 12 11 11 11 10 10 10 9 9 9 9 9 9 8 7 7 8 9 9 9 9 9 9 8 9 8 6 5 5 7 7 5 6 5 5 6 4 5 6 3 3 4 3 4 4 3 4 6 7 7 7 6 7 9 7 6 6 7 7 8 7 7 6 5 7 10 8 5 7 8 6 7 7 7 7 6 5 5 5 4 4 4 5 7
15 14 14 13 12 11 11 11 12 11 10 10 9 10 10 10 9 8 8 8 9 9 9 9 10 10 9 8 9 9 8 6 6 6 6 5 6 6 6 6 4 4 5 4 3 4 4 3 3 2 4 7 7 7 6 5 7 6 4 5 6 6 7 7 7 6 5 6 8 9 9 7 7 8 9 9 7 7 7 6 6 6 5 5 5 5 6 7
15 15 15 14 13 13 12 12 12 11 10 10 10 9 10 10 9 9 10 10 9 9 9 10 11 10 9 9 9 9 9 8 7 6 5 5 5 6 6 6 5 4 4 4 4 5 4 2 3 3 3 4 5 6 5 4 5 4 4 5 6 7 7 6 6 5 4 6 7 6 7 7 8 9 10 10 8 6 7 7 7 6 6 5 6 6 7 8
15 16 16 16 15 14 14 13 12 11 11 10 9 9 9 9 10 11 10 9 8 9 10 11 12 11 10 9 8 9 9 8 8 7 5 5 5 7 7 7 6 4 5 5 5 5 5 5 5 4 4 3 3 5 5 4 4 4 5 4 4 6 6 5 6 5 6 8 7 6 5 7 9 9 10 11 10 8 8 7 7 6 5 6 6 6 7 9
16 16 16 16 16 16 15 14 13 12 11 10 9 9 9 9 11 12 11 9 8 9 9 10 12 11 9 8 8 9 9 9 9 8 6 5 6 7 7 8 7 5 6 6 5 5 6 7 7 5 5 4 3 4 4 4 5 5 5 4 3 4 4 6 7 6 7 9 9 7 6 7 9 9 10 10 10 9 8 7 6 6 5 6 6 7 8 9
16 16 16 17 17 17 16 15 14 13 11 10 9 9 10 10 11 12 11 10 10 9 9 10 12 11 9 8 8 9 8 9 10 8 7 5 5 7 7 8 7 6 6 6 6 6 5 7 7 6 5 4 3 5 5 4 5 6 6 5 5 5 5 6 7 7 8 9 9 8 7 7 8 9 10 8 7 7 6 6 6 6 6 6 6 7 8 10
15 15 16 17 17 17 17 16 14 13 12 10 10 10 12 13 12 11 10 9 8 8 9 11 12 11 11 10 9 9 9 10 10 9 8 7 6 7 7 8 8 6 6 7 7 7 6 8 8 6 6 5 4 6 5 3 6 7 5 4 5 6 5 5 7 7 8 8 9 8 7 8 8 8 9 6 5 6 6 5 6 6 6 6 6 8 9 10
14 14 15 16 17 17 17 16 15 14 12 11 10 12 13 14 13 11 10 8 7 8 7 9 10 9 10 10 9 10 9 9 10 10 10 9 7 7 8 8 8 7 7 7 6 5 4 6 7 5 5 7 6 6 5 5 6 7 6 6 7 7 5 5 7 7 6 7 9 8 7 8 8 8 9 7 6 7 6 6 6 6 6 6 7 8 9 11
13 13 15 16 17 17 17 17 15 14 13 12 12 14 15 15 14 12 10 9 8 8 6 7 9 9 9 9 8 10 9 9 10 10 10 10 10 10 9 9 9 9 10 9 7 5 4 5 7 6 6 8 7 4 5 6 4 5 6 8 7 6 6 6 7 7 6 7 10 9 8 9 8 8 9 8 7 7 7 7 7 7 6 7 8 9 10 12
13 13 14 15 16 17 17 16 15 14 13 13 14 15 15 15 14 12 11 11 10 8 8 9 10 8 8 8 7 8 9 10 11 10 9 10 10 10 9 8 8 8 10 10 7 6 5 5 8 8 7 8 7 4 6 7 5 4 6 6 5 5 6 6 6 7 7 8 9 9 9 10 10 9 9 9 8 8 8 8 7 8 8 8 9 10 11 13
13 13 13 14 15 16 16 16 15 14 13 14 15 15 15 15 15 13 13 13 11 9 10 11 10 9 8 8 7 8 8 10 12 10 9 9 10 9 9 8 7 7 9 9 8 8 6 6 8 9 8 7 7 7 8 8 6 5 5 6 5 5 5 6 6 6 7 8 9 9 9 11 12 11 10 10 10 9 9 9 9 9 9 9 10 11 12 13
13 13 14 15 15 15 15 15 15 14 14 15 16 16 15 15 15 14 13 13 12 11 12 12 11 11 10 9 8 8 8 10 12 11 10 10 9 9 9 8 8 8 8 8 8 8 7 6 7 8 8 6 7 8 8 8 7 5 5 7 7 6 6 7 7 7 7 8 9 9 10 12 12 11 11 12 11 11 11 11 11 11 10 11 11 12 13 14
13 13 15 15 14 15 15 14 15 15 15 16 16 16 16 16 16 16 15 14 12 13 13 13 13 13 12 11 10 8 8 8 10 10 11 11 9 9 10 10 10 10 9 8 9 9 8 7 7 8 9 8 9 10 8 8 8 7 7 8 9 9 8 7 9 10 9 9 9 10 11 13 12 11 12 12 11 12 12 11 12 12 11 12 13 13 14 15
14 14 15 15 14 14 15 15 16 16 16 16 16 17 17 18 18 18 16 13 12 13 13 13 14 14 13 12 11 10 8 8 9 9 10 11 11 10 11 10 10 10 9 10 10 10 9 8 8 10 11 10 11 11 8 8 8 8 9 10 10 11 10 10 12 12 10 10 10 9 10 13 13 11 11 12 12 12 12 11 11 12 12 12 13 14 15 15
14 16 17 17 15 15 14 15 15 15 16 16 17 18 19 18 18 18 16 13 13 13 12 13 14 14 14 13 12 11 9 8 8 8 8 9 10 10 10 8 8 9 9 10 11 11 10 9 9 11 12 12 12 11 9 8 8 9 11 11 11 12 12 12 12 11 10 10 10 10 12 14 14 12 11 12 13 13 13 11 11 12 13 13 13 14 15 16
15 16 17 17 17 16 15 15 15 16 16 16 17 18 19 19 19 19 18 15 14 13 12 12 13 14 15 14 14 14 12 9 8 8 7 7 8 8 7 6 7 9 10 11 11 11 10 10 9 8 9 10 11 11 11 11 11 11 13 13 11 10 10 10 11 10 10 12 11 10 12 14 15 13 12 13 13 13 13 12 11 12 13 13 14 14 15 16
15 16 17 17 17 17 17 17 16 16 15 15 16 17 18 18 19 19 19 17 15 15 14 14 13 13 14 14 13 14 13 11 10 9 8 8 8 8 6 6 7 9 9 9 10 10 10 10 10 9 9 10 11 12 13 14 13 13 14 13 12 10 10 11 12 11 12 14 12 11 13 15 16 14 13 14 14 14 14 13 13 13 13 14 14 15 16 16
15 16 17 17 16 15 16 16 14 15 16 16 16 17 17 17 17 18 19 17 16 15 15 16 14 13 13 12 12 13 14 13 12 10 10 11 11 11 9 8 9 10 10 9 9 10 10 11 11 11 13 14 14 15 16 15 14 15 14 14 14 13 12 12 13 13 14 14 14 15 15 15 15 15 15 16 15 15 15 15 14 14 14 14 15 16 16 17
16 16 16 16 16 15 15 14 14 14 16 16 16 17 17 17 16 16 16 16 16 15 15 16 15 14 14 14 13 14 15 15 14 13 13 13 13 13 12 11 11 12 11 10 11 11 11 12 13 13 15 16 16 16 16 15 15 16 16 16 17 16 15 14 15 16 14 14 16 18 15 15 16 16 16 17 16 16 16 16 15 15 15 15 16 16 17 17
17 17 16 16 16 16 16 16 16 16 16 16 17 17 17 16 15 14 15 15 15 15 15 15 15 16 16 15 15 15 15 15 16 15 14 14 14 14 14 14 14 13 12 12 13 12 12 14 15 14 15 17 16 16 16 16 17 17 17 18 19 19 18 17 17 17 15 15 18 18 16 17 18 18 18 18 16 16 16 15 15 15 15 15 16 16 17 18
18 18 17 16 17 18 18 19 18 17 17 17 17 17 16 16 16 16 15 14 13 14 15 15 15 16 17 16 16 17 17 16 17 18 16 15 15 15 15 15 15 14 13 13 14 14 13 15 16 15 16 17 17 17 17 16 17 19 19 19 20 20 19 18 17 17 17 18 20 18 18 19 19 18 18 17 15 15 15 15 15 15 15 16 16 16 17 18
18 18 18 18 19 19 19 19 18 17 17 17 17 17 17 17 17 17 16 15 14 14 14 15 15 16 17 16 15 17 18 18 18 19 18 16 15 16 15 15 16 15 14 14 15 15 15 16 17 15 15 17 17 17 17 16 17 18 19 19 19 18 18 18 18 18 18 20 20 19 19 20 20 18 16 14 14 14 14 15 15 16 16 16 16 17 18 19
19 20 20 20 21 20 19 19 18 17 18 18 17 17 17 17 17 17 18 18 17 15 15 15 16 16 15 15 15 17 18 17 18 20 19 18 18 18 17 16 16 16 16 16 15 15 15 15 16 14 15 17 17 15 16 16 16 18 18 18 18 17 17 18 18 18 19 19 18 17 18 20 19 16 14 13 12 13 14 15 16 16 16 16 17 18 19 20
19 20 20 20 21 21 20 20 19 19 19 18 17 18 18 18 17 17 18 19 18 16 16 16 16 16 15 15 16 18 18 16 17 19 18 18 17 17 16 16 15 15 16 16 16 15 15 15 15 15 15 17 17 15 15 15 16 17 17 17 17 17 17 18 17 17 18 17 16 18 19 19 17 15 13 13 13 13 15 16 15 16 16 17 19 19 20 20
Wind_Direction
295 298 300 302 303 303 303 301 300 297 294 292 290 290 291 292 293 293 292 291 291 290 291 292 295 299 303 307 307 308 312 313 313 312 308 305 301 290 286 316 310 196 184 53 72 120 120 156 164 146 125 129 143 146 132 131 131 97 73 53 40 49 56 84 113 93 86 87 69 73 89 98 99 79 64 61 56 54 47 40 38 26 43 82 96 122 128 129
295 298 301 302 303 303 303 302 300 297 294 292 292 292 293 294 294 294 293 291 289 287 288 289 292 297 301 305 306 309 314 313 314 310 299 301 306 287 265 287 245 177 178 83 144 143 133 152 147 121 114 133 148 148 134 127 139 131 82 56 61 100 92 78 109 106 94 94 76 74 88 91 95 90 52 43 43 53 44 29 44 53 65 87 105 122 126 133
296 299 301 303 304 304 304 303 301 297 294 293 293 294 295 296 296 295 294 292 289 286 286 287 291 295 298 302 304 310 315 316 318 313 310 308 285 266 250 238 181 162 148 125 153 158 153 148 134 127 119 133 146 137 116 114 144 162 106 77 63 158 105 48 45 74 96 98 80 71 82 79 73 54 33 44 33 32 38 34 52 72 90 100 109 121 128 134
296 298 301 304 305 305 305 304 301 298 295 294 294 295 297 298 298 297 295 292 289 286 285 286 289 291 294 299 302 308 318 323 319 326 339 332 293 253 217 197 167 153 143 129 152 165 163 152 136 142 130 131 141 90 164 184 172 155 121 123 185 112 75 16 34 84 104 102 88 78 71 68 63 47 35 53 36 4 27 82 86 99 109 108 113 123 130 134
296 298 302 304 305 306 306 303 300 298 296 295 295 296 298 299 299 298 297 294 290 287 285 284 285 285 288 291 296 302 324 332 320 343 7 359 340 207 178 167 153 147 142 133 147 151 150 145 125 112 111 117 67 37 177 194 161 134 124 140 135 106 72 27 66 97 107 100 89 78 68 71 64 44 34 42 43 20 67 103 107 115 118 114 118 127 128 132
295 298 301 303 305 306 305 302 299 297 296 294 294 295 297 298 299 299 298 295 292 288 285 283 281 282 282 282 287 285 284 314 327 7 23 25 50 113 138 145 147 143 139 138 141 138 137 130 112 99 111 117 38 44 201 203 142 135 129 106 100 105 87 54 82 101 101 97 90 79 79 81 61 34 29 34 29 42 93 106 108 114 121 116 116 126 129 131
295 297 300 303 305 305 304 301 298 296 295 293 293 293 295 296 298 298 298 296 292 289 286 284 280 276 274 273 277 272 259 276 316 37 42 52 74 106 122 132 143 143 143 147 145 139 134 123 116 125 133 138 310 199 197 178 128 124 114 95 86 104 104 81 87 105 102 98 95 84 79 73 59 36 29 30 26 58 94 97 101 110 121 117 109 118 131 141
294 296 299 302 304 304 303 300 297 295 293 291 291 291 291 293 296 297 297 296 293 293 290 286 280 270 262 256 259 278 264 255 258 44 50 68 83 106 121 130 144 148 151 160 159 146 136 143 164 174 160 155 131 132 126 102 111 111 107 114 104 110 118 102 94 110 108 96 86 74 66 70 68 52 38 31 32 69 90 86 99 110 125 133 117 115 125 140
292 295 297 300 302 303 302 299 296 293 291 289 287 286 287 290 292 294 295 297 298 299 297 290 274 253 239 232 229 272 254 237 229 135 80 93 104 114 120 127 146 152 154 164 164 151 146 176 193 209 198 168 122 94 81 88 127 139 130 131 121 118 131 126 108 116 117 99 84 71 68 82 75 52 35 30 37 62 72 72 97 119 144 163 152 145 141 143
291 293 296 298 300 302 301 298 295 292 289 285 283 282 284 286 286 288 292 300 305 308 312 289 223 180 169 179 168 225 241 220 211 172 145 144 135 127 125 128 145 152 151 156 159 161 178 210 233 238 206 170 113 89 77 86 141 155 143 143 140 134 133 131 117 117 121 106 91 77 72 74 54 39 29 28 38 50 50 52 72 101 159 195 193 189 189 186
289 291 293 295 298 300 299 296 293 289 284 280 279 278 279 279 275 276 284 297 316 358 34 123 130 127 132 132 142 210 224 187 214 194 170 165 150 150 151 143 149 155 155 156 170 186 191 199 172 141 162 153 118 78 48 57 109 135 128 139 149 140 116 116 118 120 120 116 100 84 73 57 36 35 36 33 36 42 45 41 45 50 5 293 230 223 232 229
288 289 290 293 296 298 297 295 290 284 279 275 273 271 270 266 258 256 257 265 97 88 94 118 120 113 106 104 181 228 166 158 164 164 174 173 166 167 156 152 160 165 165 163 185 193 175 174 148 131 146 145 126 98 95 33 44 108 119 132 144 85 86 116 130 130 121 127 112 83 59 41 33 37 40 40 38 40 45 39 42 42 21 351 261 238 250 244
286 287 288 290 294 296 296 293 287 280 274 272 270 265 260 251 242 234 219 192 136 112 107 117 118 98 73 32 256 132 138 149 126 133 168 166 152 149 145 155 167 171 174 176 187 178 172 181 171 160 159 146 138 123 119 15 36 126 123 127 116 50 72 125 136 135 123 137 118 58 33 32 36 42 46 44 42 42 38 36 44 44 35 31 18 350 311 261
284 284 286 289 292 294 294 290 284 277 271 271 268 262 254 240 229 216 198 175 145 126 122 123 107 70 51 24 43 107 147 145 124 125 146 151 141 136 143 145 150 161 169 184 187 174 181 188 154 155 163 154 155 131 74 36 115 145 138 140 118 94 214 163 161 156 133 159 82 36 27 43 31 37 51 40 38 43 37 32 37 37 36 39 34 20 354 309
282 282 285 288 289 292 293 288 282 277 272 270 266 259 247 231 220 205 188 174 157 146 143 137 110 58 33 35 67 96 126 133 138 136 135 148 146 139 142 130 125 139 147 164 171 172 181 167 141 147 156 149 133 109 76 73 105 128 163 220 205 173 233 289 176 165 151 206 58 47 34 28 7 28 52 33 40 49 45 38 38 39 38 39 33 27 24 357
280 281 283 286 288 290 291 287 280 276 272 271 268 254 235 222 212 200 191 182 169 165 159 144 129 91 47 54 78 95 120 132 142 143 138 150 150 141 131 118 118 131 141 148 148 159 163 150 151 152 151 142 126 117 71 55 60 61 186 220 217 196 207 110 113 149 151 214 340 20 28 12 354 19 47 40 57 58 50 46 43 44 40 39 35 31 32 18
278 279 281 284 286 286 287 285 279 275 271 273 268 244 225 214 205 200 199 197 190 188 184 175 159 132 76 63 91 114 134 140 138 142 149 156 159 154 132 114 120 131 139 140 135 140 143 142 153 159 157 153 147 128 24 332 265 320 211 223 228 206 190 150 130 135 144 79 349 7 20 20 2 23 57 54 64 58 49 49 43 42 38 35 32 29 29 27
276 278 279 281 283 283 284 284 281 275 270 271 258 229 217 210 205 206 208 210 208 204 203 206 197 145 193 201 155 142 141 148 145 143 149 154 159 161 149 131 125 128 130 132 137 139 139 134 134 152 173 166 198 156 168 218 173 103 200 243 233 203 193 175 161 163 130 98 14 16 13 25 27 37 61 56 62 58 52 52 44 40 40 36 31 28 28 32
274 276 278 278 279 280 280 281 280 276 269 264 241 215 210 211 213 215 214 214 213 208 201 200 194 167 185 189 167 154 142 148 154 153 155 151 149 154 155 146 137 135 125 118 127 136 138 132 113 166 218 223 227 169 179 219 183 160 268 320 185 179 185 183 169 169 141 117 307 42 25 45 77 70 59 51 61 64 57 52 49 47 45 38 31 27 27 30
272 274 275 275 277 277 277 276 274 272 262 249 234 215 211 217 220 223 227 224 223 223 222 217 214 217 228 204 164 159 149 144 152 166 169 158 150 151 148 137 133 145 133 116 110 126 135 179 242 215 216 218 218 195 201 235 230 200 4 51 142 155 173 183 176 195 171 332 272 211 123 134 144 112 53 60 64 62 56 49 47 47 44 37 31 26 24 25
272 272 272 272 274 273 273 273 268 265 251 238 235 214 209 219 221 227 238 235 231 229 231 231 220 222 235 216 174 158 149 149 154 166 172 167 156 151 154 134 115 137 162 126 74 41 135 244 248 224 221 219 213 220 229 259 298 300 37 101 140 146 166 192 199 220 238 324 259 231 78 277 215 205 76 70 62 54 53 52 47 43 38 32 32 26 21 19
270 270 271 269 270 271 270 270 265 257 241 230 230 214 213 224 224 225 229 233 235 228 227 231 220 223 229 209 186 160 145 157 168 176 169 162 159 164 180 165 152 313 317 98 344 310 286 272 251 232 229 232 232 236 240 283 335 346 98 130 140 141 147 212 261 245 276 311 258 230 52 317 243 221 302 22 43 38 44 57 60 50 35 27 30 26 21 18
268 269 269 267 269 268 267 268 259 247 233 226 227 223 225 230 228 227 220 221 234 228 220 220 215 218 210 199 193 175 166 172 180 200 189 169 174 184 196 188 253 301 312 242 247 259 265 261 241 228 219 222 239 236 198 213 243 78 115 137 150 158 153 212 274 259 277 297 258 197 57 344 247 255 327 345 40 33 39 61 58 46 35 26 26 21 16 16
266 268 267 267 268 266 267 262 246 238 232 223 224 230 233 231 227 224 217 216 226 224 217 212 211 214 204 199 198 188 194 202 197 210 200 188 191 196 217 234 273 296 291 264 246 245 249 240 218 205 200 201 217 215 185 191 186 112 131 154 170 192 196 220 250 252 290 306 232 170 38 318 259 229 283 311 358 33 51 63 41 25 25 24 21 17 11 8
266 266 265 267 267 266 266 248 228 236 233 219 224 239 240 232 224 218 215 217 222 221 217 212 214 219 212 203 200 195 204 220 218 213 203 200 202 210 240 243 257 277 283 279 260 240 236 235 230 222 252 252 193 200 202 193 192 196 202 199 197 211 230 239 244 252 278 260 230 224 308 290 269 240 231 274 296 292 344 20 17 14 21 22 17 11 5 1
264 263 263 265 266 268 259 231 227 244 231 218 230 247 244 228 221 217 211 217 227 219 210 210 212 214 209 201 199 197 205 229 227 214 212 221 221 230 252 257 271 272 284 291 266 232 231 241 258 246 251 240 194 208 219 203 197 216 224 222 221 228 247 252 255 262 255 241 239 247 262 255 254 249 245 263 268 261 293 327 347 359 7 7 5 1 356 353
261 260 262 261 264 265 246 227 237 242 226 226 240 250 242 224 219 218 209 220 233 217 205 210 210 206 204 200 195 192 211 229 229 219 220 228 230 233 243 257 281 279 295 318 271 251 246 247 265 255 227 202 197 217 227 212 198 224 234 235 242 256 264 262 262 267 266 258 249 247 248 239 235 245 258 258 248 257 278 299 314 321 332 347 354 351 346 344
258 259 260 257 260 256 237 231 240 233 225 236 246 246 236 221 218 214 203 213 223 210 205 208 207 205 205 202 196 201 222 221 216 226 224 225 232 233 239 243 252 273 290 310 257 265 263 244 241 226 219 215 212 228 236 227 219 233 240 246 262 268 274 277 271 270 276 274 256 244 240 247 240 242 257 254 245 252 260 273 292 297 305 328 341 338 337 336
257 256 255 255 256 245 232 233 234 227 230 243 248 243 232 220 214 208 203 212 216 213 211 207 207 208 207 209 212 218 231 227 222 229 228 234 238 230 237 242 240 267 276 253 235 265 265 238 228 211 222 226 228 241 241 228 229 237 240 247 264 272 280 282 267 261 276 279 260 243 232 243 248 238 238 246 250 251 257 271 286 290 294 304 317 321 324 326
255 253 252 252 249 238 233 233 228 227 237 245 247 239 226 215 208 204 210 217 218 218 214 209 211 211 208 217 225 223 225 228 230 230 235 248 240 232 246 252 246 267 276 258 240 257 257 249 254 244 228 223 231 248 244 222 225 237 251 256 269 284 287 282 262 249 264 276 273 253 232 234 251 244 237 248 262 256 256 275 286 290 291 291 301 308 312 317
255 252 250 246 241 237 234 230 226 230 238 242 244 232 216 211 205 201 209 217 221 220 216 215 217 214 213 221 226 223 221 225 228 228 243 256 247 247 260 258 256 278 281 265 257 264 268 275 281 263 238 235 249 257 250 231 224 232 257 263 272 286 291 285 267 251 244 261 286 280 243 234 251 255 249 255 268 260 254 271 281 285 286 285 295 303 308 315
255 252 248 241 237 236 231 229 231 234 235 238 239 221 206 207 209 207 211 217 220 221 219 218 219 219 220 224 225 220 217 223 227 229 242 255 254 252 247 236 238 263 265 252 252 260 258 257 262 270 273 267 255 250 249 248 246 248 262 271 278 282 286 278 263 251 243 250 274 292 265 250 259 266 264 259 259 257 260 269 271 273 279 281 292 303 309 314
256 252 247 237 233 233 231 231 233 231 231 233 229 214 201 202 209 209 210 216 223 226 222 214 215 216 214 218 222 219 219 224 225 229 240 252 257 251 242 232 225 234 244 242 248 256 259 263 265 275 281 268 221 217 230 251 262 260 258 256 256 260 262 265 263 260 257 259 274 285 273 269 275 282 282 266 252 253 261 264 262 264 272 278 290 302 308 315
258 250 242 234 231 232 231 230 228 226 228 227 218 208 201 203 209 209 211 222 231 230 225 213 209 209 210 215 219 215 223 231 226 226 234 242 254 249 247 244 232 226 234 241 253 248 238 250 255 252 253 248 213 202 204 238 265 260 250 239 238 241 242 251 253 252 258 265 280 285 275 273 279 288 289 272 249 251 257 258 260 263 270 278 293 304 309 316
258 246 238 234 232 230 227 225 223 221 221 219 211 203 203 206 209 209 211 224 234 231 228 215 203 204 216 225 231 224 227 236 232 227 228 235 249 243 239 241 228 220 230 243 259 256 232 236 245 244 234 224 215 220 228 273 276 262 250 245 251 247 240 250 249 247 256 270 279 279 276 276 279 292 298 285 260 261 257 252 260 269 277 286 296 303 309 316
254 244 236 232 230 226 221 219 219 217 216 212 207 207 208 210 209 209 213 224 234 231 226 214 203 209 221 230 241 236 232 234 227 226 232 241 255 247 239 241 227 218 229 236 249 257 240 234 238 238 239 234 224 232 260 277 266 261 259 255 255 248 243 258 264 265 270 274 275 271 269 276 283 295 300 292 274 271 265 258 266 275 279 286 294 300 308 313
251 244 236 232 229 223 218 216 216 217 216 208 207 212 214 214 212 213 222 233 234 222 211 212 213 217 224 229 236 233 233 231 222 226 237 246 257 252 243 248 242 228 227 228 237 240 220 228 238 230 235 245 240 244 277 276 254 254 254 249 253 262 268 264 264 276 280 272 273 269 254 256 268 281 285 281 271 267 266 267 276 282 280 284 291 297 305 309
250 244 237 229 223 218 215 214 215 218 217 211 213 216 216 216 216 219 231 237 234 218 207 213 219 220 222 224 232 236 235 228 221 229 242 247 257 252 237 243 254 242 224 220 234 240 217 233 252 241 230 246 258 269 284 283 271 251 245 242 247 259 269 271 266 271 270 269 277 276 260 255 258 260 260 257 254 257 265 272 280 282 279 283 289 293 299 305
245 239 232 223 216 214 212 213 218 219 217 216 217 218 218 220 222 229 238 239 236 225 216 217 221 226 225 223 234 242 236 225 226 236 244 245 254 251 236 234 245 241 225 217 228 238 236 246 256 251 241 249 266 269 267 270 271 266 258 257 254 246 255 269 267 257 255 265 274 275 271 266 260 255 251 250 250 252 261 271 277 274 272 277 283 287 293 300
239 233 228 220 213 213 215 218 221 220 218 219 219 219 222 223 223 230 239 238 234 230 224 224 227 230 232 231 234 240 238 232 234 242 244 242 247 250 246 239 231 230 230 227 231 240 250 250 248 253 254 252 261 263 253 249 251 252 257 259 260 269 279 274 267 263 260 262 264 266 273 273 267 260 255 254 257 259 263 271 275 272 271 275 279 283 290 297
236 230 226 219 214 218 220 222 223 220 221 223 222 221 224 223 222 230 241 239 233 229 228 231 232 230 232 233 232 237 244 242 240 242 243 240 238 243 247 239 228 227 234 241 244 245 249 243 235 246 250 244 252 256 245 235 234 235 244 249 252 268 280 276 274 278 276 266 259 261 272 276 272 264 259 259 263 266 265 270 275 272 271 276 279 283 290 295
232 227 225 221 223 228 224 223 225 223 222 224 224 224 227 226 224 229 237 235 230 232 232 234 233 231 231 231 230 234 242 246 245 243 244 240 235 244 250 239 227 228 231 239 247 247 246 243 240 248 249 243 251 259 248 238 241 246 256 260 260 267 272 271 273 275 276 273 269 267 274 278 275 268 264 262 261 262 264 267 273 274 271 274 279 284 290 295
234 233 232 228 231 232 225 225 230 228 226 227 227 227 228 227 225 228 232 231 231 235 234 232 230 228 230 230 230 233 236 243 248 241 239 239 238 249 255 239 227 234 238 242 250 253 253 249 246 255 260 255 257 264 263 259 260 262 269 271 267 268 270 268 268 267 266 268 270 273 276 279 280 276 270 264 260 264 268 267 269 274 274 276 280 285 290 296
240 237 233 231 232 230 226 227 229 229 229 228 228 229 230 228 226 229 232 229 228 231 233 234 230 227 231 231 230 233 231 234 247 244 231 232 238 247 251 236 228 239 245 243 244 249 252 249 245 253 263 263 262 265 267 268 266 264 269 271 267 266 268 267 269 272 271 267 267 271 274 278 283 283 278 272 268 269 271 268 267 271 275 277 281 286 292 297
241 233 230 233 234 229 227 226 225 228 229 228 230 231 230 229 228 232 233 229 227 230 231 235 234 231 233 233 233 236 231 227 238 245 237 233 236 237 233 227 231 244 249 242 239 246 250 249 245 241 243 248 252 256 259 263 265 266 268 267 265 264 263 266 268 268 269 269 266 267 273 281 285 284 278 275 272 270 271 271 270 271 274 278 282 288 293 297
236 230 230 234 235 230 228 229 228 229 230 231 232 230 228 227 230 235 233 228 230 231 230 232 235 234 235 234 235 239 236 230 231 238 239 237 240 241 235 229 234 243 245 244 249 254 255 255 251 241 240 245 248 254 259 261 263 265 266 265 266 265 263 267 270 266 266 269 268 267 272 277 279 275 272 274 273 271 271 272 272 274 276 280 283 287 292 296
233 231 231 232 233 232 231 233 234 233 234 235 231 229 231 231 230 233 231 229 233 233 231 232 233 232 235 236 236 238 240 239 236 236 240 243 245 246 244 242 244 246 247 252 258 256 257 261 257 248 248 250 250 254 260 260 260 263 265 267 269 268 264 264 266 267 268 270 270 271 270 270 272 270 269 272 274 274 273 272 272 274 277 279 283 287 292 299
234 234 233 231 230 229 229 235 239 238 238 237 231 229 233 232 228 229 230 232 237 234 232 236 236 234 235 234 234 238 242 244 242 240 243 249 250 248 251 255 257 256 255 259 261 255 253 259 258 255 257 257 254 257 261 261 262 264 266 267 268 268 266 264 265 267 266 266 270 272 268 268 274 276 273 273 275 276 274 272 273 274 275 278 282 287 294 301
236 236 236 235 232 230 231 236 240 238 237 236 232 229 231 230 229 231 230 231 235 236 234 237 240 240 239 236 234 238 242 243 245 245 244 248 251 249 251 257 258 259 258 257 259 258 258 261 260 259 263 264 262 263 265 265 267 268 269 269 268 266 262 261 263 264 264 266 271 273 270 271 278 281 279 278 278 277 276 273 273 274 274 278 283 289 296 302
237 237 239 239 236 234 234 236 237 235 234 233 230 229 230 229 230 233 231 227 231 237 237 237 240 243 243 240 237 239 242 242 244 244 241 243 248 248 248 252 254 257 259 258 260 263 263 264 263 262 265 268 267 267 268 269 270 270 270 270 269 266 263 263 265 266 268 272 275 276 276 279 284 285 283 279 273 273 273 273 272 272 273 279 285 290 296 300
240 239 238 237 236 235 235 236 235 232 232 232 231 232 232 232 235 237 233 229 229 233 237 242 245 246 245 241 238 241 245 244 244 246 244 241 243 246 248 250 250 252 256 259 262 263 263 264 264 264 263 264 265 267 270 272 275 274 270 266 266 267 265 266 269 270 270 272 275 278 278 280 284 287 286 280 273 270 270 271 273 273 275 279 284 290 295 298
243 240 238 237 235 235 237 237 234 232 231 233 235 235 234 235 241 242 236 233 234 236 240 245 245 242 241 241 241 244 247 247 246 250 249 243 241 243 245 245 246 248 252 257 261 261 261 262 260 257 257 260 263 264 268 274 278 275 267 260 263 267 268 270 272 271 271 271 270 273 276 278 280 283 285 283 279 274 270 270 272 273 275 281 286 290 293 294